Previsão horária em Senkinyata

Hoje, 30 Julho, Sexta-feira

Tempo Temperatura Precipitação Vento Pressão Humidade
00:00 +18°C° 0 mm 2 m/s 739 mmHg 87%
01:00 +18°C° 0 mm 2 m/s 739 mmHg 88%
02:00 +18°C° 0 mm 2 m/s 739 mmHg 88%
03:00 +17°C° 0 mm 2 m/s 739 mmHg 89%
04:00 +17°C° 0 mm 2 m/s 739 mmHg 90%
05:00 +16°C° 0 mm 2 m/s 739 mmHg 91%
06:00 +17°C° 0.1 mm 2 m/s 739 mmHg 88%
07:00 +18°C° 0.1 mm 3 m/s 739 mmHg 85%
08:00 +19°C° 0.1 mm 3 m/s 739 mmHg 81%
09:00 +20°C° 0.1 mm 4 m/s 739 mmHg 73%
10:00 +22°C° 0.1 mm 4 m/s 739 mmHg 65%
11:00 +23°C° 0.1 mm 5 m/s 739 mmHg 56%
12:00 +23°C° 0 mm 5 m/s 739 mmHg 56%
13:00 +23°C° 0 mm 5 m/s 739 mmHg 55%
14:00 +23°C° 0 mm 4 m/s 739 mmHg 55%
15:00 +22°C° 0 mm 4 m/s 738 mmHg 57%
16:00 +22°C° 0 mm 4 m/s 738 mmHg 60%
17:00 +21°C° 0 mm 4 m/s 738 mmHg 63%
18:00 +20°C° 0 mm 4 m/s 738 mmHg 67%
19:00 +19°C° 0 mm 4 m/s 738 mmHg 71%
20:00 +18°C° 0 mm 3 m/s 738 mmHg 74%
21:00 +17°C° 0 mm 3 m/s 738 mmHg 77%
22:00 +16°C° 0 mm 3 m/s 738 mmHg 79%
23:00 +16°C° 0 mm 3 m/s 738 mmHg 81%

Amanhã, 31 Julho, Sábado

Tempo Temperatura Precipitação Vento Pressão Humidade
00:00 +14°C° 0 mm 3 m/s 738 mmHg 81%
01:00 +14°C° 0 mm 3 m/s 738 mmHg 81%
02:00 +14°C° 0 mm 3 m/s 738 mmHg 81%
03:00 +13°C° 0 mm 3 m/s 738 mmHg 83%
04:00 +13°C° 0 mm 3 m/s 738 mmHg 84%
05:00 +12°C° 0 mm 3 m/s 738 mmHg 85%
06:00 +14°C° 0 mm 3 m/s 738 mmHg 80%
07:00 +17°C° 0 mm 3 m/s 739 mmHg 74%
08:00 +19°C° 0 mm 4 m/s 739 mmHg 68%
09:00 +20°C° 0 mm 4 m/s 739 mmHg 64%
10:00 +21°C° 0 mm 4 m/s 739 mmHg 60%
11:00 +22°C° 0 mm 4 m/s 739 mmHg 55%
12:00 +23°C° 0 mm 4 m/s 739 mmHg 53%
13:00 +25°C° 0 mm 4 m/s 739 mmHg 51%
14:00 +26°C° 0 mm 4 m/s 739 mmHg 49%
15:00 +26°C° 0 mm 4 m/s 739 mmHg 53%
16:00 +26°C° 0 mm 3 m/s 739 mmHg 56%
17:00 +26°C° 0 mm 3 m/s 738 mmHg 60%
18:00 +25°C° 0 mm 3 m/s 738 mmHg 64%
19:00 +22°C° 0 mm 3 m/s 738 mmHg 68%
20:00 +21°C° 0 mm 3 m/s 738 mmHg 72%
21:00 +20°C° 0.3 mm 3 m/s 738 mmHg 79%
22:00 +19°C° 0.3 mm 3 m/s 738 mmHg 86%
23:00 +18°C° 0.3 mm 4 m/s 739 mmHg 93%

Depois de amanhã, 1 Agosto, Domingo

Tempo Temperatura Precipitação Vento Pressão Humidade
00:00 +18°C° 0 mm 3 m/s 738 mmHg 94%
01:00 +18°C° 0 mm 3 m/s 738 mmHg 95%
02:00 +17°C° 0 mm 3 m/s 738 mmHg 97%
03:00 +17°C° 0 mm 3 m/s 738 mmHg 97%
04:00 +16°C° 0 mm 3 m/s 738 mmHg 97%
05:00 +16°C° 0 mm 3 m/s 738 mmHg 98%
06:00 +17°C° 0 mm 3 m/s 738 mmHg 92%
07:00 +18°C° 0 mm 4 m/s 738 mmHg 87%
08:00 +20°C° 0 mm 4 m/s 739 mmHg 81%
09:00 +21°C° 0 mm 4 m/s 739 mmHg 73%
10:00 +22°C° 0 mm 4 m/s 739 mmHg 64%
11:00 +25°C° 0 mm 4 m/s 739 mmHg 55%
12:00 +25°C° 0 mm 5 m/s 739 mmHg 53%
13:00 +26°C° 0 mm 5 m/s 739 mmHg 51%
14:00 +26°C° 0 mm 5 m/s 739 mmHg 49%
15:00 +26°C° 0 mm 4 m/s 739 mmHg 54%
16:00 +25°C° 0 mm 4 m/s 739 mmHg 58%
17:00 +25°C° 0 mm 3 m/s 739 mmHg 62%
18:00 +22°C° 0 mm 3 m/s 739 mmHg 65%
19:00 +21°C° 0 mm 2 m/s 738 mmHg 69%
20:00 +21°C° 0 mm 1 m/s 738 mmHg 72%
21:00 +19°C° 0.2 mm 2 m/s 738 mmHg 77%
22:00 +18°C° 0.2 mm 2 m/s 738 mmHg 82%
23:00 +17°C° 0.2 mm 3 m/s 737 mmHg 88%

2 Agosto, Segunda-feira

Tempo Temperatura Precipitação Vento Pressão Humidade
00:00 +17°C° 0.9 mm 3 m/s 737 mmHg 90%
01:00 +16°C° 0.9 mm 3 m/s 737 mmHg 93%
02:00 +16°C° 0.9 mm 3 m/s 737 mmHg 96%
03:00 +15°C° 0.3 mm 4 m/s 737 mmHg 96%
04:00 +14°C° 0.3 mm 4 m/s 737 mmHg 96%
05:00 +14°C° 0.3 mm 4 m/s 736 mmHg 96%
06:00 +14°C° 0 mm 3 m/s 737 mmHg 95%
07:00 +16°C° 0 mm 3 m/s 737 mmHg 94%
08:00 +16°C° 0 mm 3 m/s 737 mmHg 92%
09:00 +16°C° 0 mm 3 m/s 737 mmHg 90%
10:00 +17°C° 0 mm 3 m/s 737 mmHg 87%
11:00 +18°C° 0 mm 3 m/s 737 mmHg 84%
12:00 +18°C° 0.4 mm 4 m/s 737 mmHg 82%
13:00 +19°C° 0.4 mm 4 m/s 737 mmHg 79%
14:00 +20°C° 0.4 mm 4 m/s 738 mmHg 77%
15:00 +20°C° 0.3 mm 4 m/s 738 mmHg 77%
16:00 +20°C° 0.3 mm 4 m/s 738 mmHg 76%
17:00 +20°C° 0.3 mm 4 m/s 738 mmHg 76%
18:00 +19°C° 0.2 mm 3 m/s 738 mmHg 80%
19:00 +18°C° 0.2 mm 3 m/s 738 mmHg 85%
20:00 +16°C° 0.2 mm 3 m/s 738 mmHg 89%
21:00 +16°C° 0 mm 3 m/s 739 mmHg 91%
22:00 +15°C° 0 mm 2 m/s 739 mmHg 93%
23:00 +14°C° 0 mm 2 m/s 740 mmHg 95%

3 Agosto, Terça-feira

Tempo Temperatura Precipitação Vento Pressão Humidade
00:00 +14°C° 0 mm 2 m/s 740 mmHg 94%
01:00 +13°C° 0 mm 3 m/s 740 mmHg 94%
02:00 +12°C° 0 mm 3 m/s 740 mmHg 94%
03:00 +12°C° 0 mm 3 m/s 740 mmHg 94%
04:00 +12°C° 0 mm 3 m/s 740 mmHg 94%
05:00 +12°C° 0 mm 4 m/s 741 mmHg 95%
06:00 +13°C° 0 mm 4 m/s 741 mmHg 91%
07:00 +14°C° 0 mm 4 m/s 741 mmHg 88%
08:00 +15°C° 0 mm 4 m/s 742 mmHg 84%
09:00 +17°C° 0 mm 4 m/s 742 mmHg 79%
10:00 +18°C° 0 mm 4 m/s 742 mmHg 73%
11:00 +19°C° 0 mm 4 m/s 742 mmHg 68%
12:00 +19°C° 0.2 mm 4 m/s 742 mmHg 67%
13:00 +20°C° 0.2 mm 4 m/s 742 mmHg 65%
14:00 +20°C° 0.2 mm 4 m/s 742 mmHg 64%
15:00 +20°C° 0.1 mm 4 m/s 742 mmHg 64%
16:00 +20°C° 0.1 mm 4 m/s 743 mmHg 65%
17:00 +20°C° 0.1 mm 4 m/s 743 mmHg 65%
18:00 +19°C° 0 mm 4 m/s 743 mmHg 68%
19:00 +18°C° 0 mm 3 m/s 743 mmHg 71%
20:00 +17°C° 0 mm 2 m/s 743 mmHg 74%
21:00 +16°C° 0 mm 2 m/s 743 mmHg 76%
22:00 +15°C° 0 mm 2 m/s 743 mmHg 78%
23:00 +15°C° 0 mm 1 m/s 743 mmHg 79%

4 Agosto, Quarta-feira

Tempo Temperatura Precipitação Vento Pressão Humidade
00:00 +15°C° 0 mm 1 m/s 743 mmHg 80%
01:00 +14°C° 0 mm 1 m/s 744 mmHg 81%
02:00 +14°C° 0 mm 1 m/s 744 mmHg 82%
03:00 +14°C° 0 mm 1 m/s 744 mmHg 83%
04:00 +13°C° 0 mm 1 m/s 744 mmHg 84%
05:00 +13°C° 0 mm 2 m/s 744 mmHg 85%
06:00 +15°C° 0 mm 1 m/s 744 mmHg 80%
07:00 +16°C° 0 mm 1 m/s 744 mmHg 74%
08:00 +19°C° 0 mm 1 m/s 744 mmHg 69%
09:00 +19°C° 0 mm 2 m/s 745 mmHg 64%
10:00 +20°C° 0 mm 2 m/s 745 mmHg 60%
11:00 +23°C° 0 mm 2 m/s 745 mmHg 55%
12:00 +23°C° 0 mm 2 m/s 745 mmHg 53%
13:00 +24°C° 0 mm 2 m/s 745 mmHg 50%
14:00 +24°C° 0 mm 2 m/s 744 mmHg 47%
15:00 +24°C° 0 mm 2 m/s 744 mmHg 48%
16:00 +24°C° 0 mm 1 m/s 744 mmHg 49%
17:00 +24°C° 0 mm 1 m/s 744 mmHg 50%
18:00 +22°C° 0 mm 1 m/s 744 mmHg 57%
19:00 +20°C° 0 mm 2 m/s 744 mmHg 65%
20:00 +18°C° 0 mm 2 m/s 744 mmHg 72%
21:00 +18°C° 0 mm 2 m/s 744 mmHg 72%
22:00 +17°C° 0 mm 2 m/s 744 mmHg 72%
23:00 +17°C° 0 mm 2 m/s 744 mmHg 72%
Mostrar mais

Necessitamos do seu Consentimento

A Meteoprog e os seus Fornecedores de Serviços podem armazenar e aceder a dados pessoais como cookies, identificadores do dispositivo ou outras tecnologias semelhantes existentes no seu dispositivo e processar estes dados para personalizar conteúdos e anúncios, assim como funcionalidades nas redes sociais e análise de tráfego.

  • Armazenar e/ou aceder a informações no seu dispositivo

    Os cookies, identificadores do dispositivo ou outras informações podem ser armazenados ou acedidos no seu dispositivo, para os fins acima indicados.

  • Anúncios e conteúdos personalizados, medição de anúncios e conteúdos, dados sobre o público-alvo e desenvolvimento de produtos

    Os anúncios e os conteúdos podem ser personalizados com base num perfil. Podem ser adicionados dados adicionais para uma maior personalização dos anúncios e dos conteúdos. A eficácia dos anúncios e dos conteúdos pode ser medida. Podem ser obtidas informações sobre o público que visualizou os anúncios e os conteúdos. Estes dados podem ser usados para desenvolver ou melhorar sistemas, softwares ou a experiência do utilizador.

Ao clicar em "Eu concordo”, permitirá o uso de cookies, identificadores do dispositivo e web beacons mencionados ou outras tecnologias semelhantes. As configurações do navegador do seu dispositivo podem ser alteradas.

Para certos fins, podem ser invocados interesses legítimos ao invés de consentimento. Pode ler mais informação sobre este assunto na nossa Política de Privacidade e Cookies.